Time,TemperatureF,DewpointF,PressureIn,WindDirection,WindDirectionDegrees,WindSpeedMPH,WindSpeedGustMPH,Humidity,HourlyPrecipIn,Conditions,Clouds,dailyrainin,SoftwareType,DateUTC
2013-04-18 00:53:00,78.0,-99.9,30.05,East,80,16.0,20.0,-999,-99.99,,,-99.99,,2013-04-18 04:53:00,
2013-04-18 01:52:00,79.0,-99.9,30.02,East,90,17.0,21.0,-999,-99.99,,,-99.99,,2013-04-18 05:52:00,
2013-04-18 02:52:00,79.0,-99.9,30.01,ENE,70,15.0,17.0,-999,-99.99,,,-99.99,,2013-04-18 06:52:00,
2013-04-18 03:53:00,78.0,-99.9,29.99,East,80,15.0,17.0,-999,-99.99,,,-99.99,,2013-04-18 07:53:00,
2013-04-18 04:52:00,79.0,-99.9,29.98,ESE,120,16.0,20.0,-999,-99.99,,,-99.99,,2013-04-18 08:52:00,
2013-04-18 05:53:00,79.0,-99.9,29.99,SE,130,21.0,25.0,-999,-99.99,,,-99.99,,2013-04-18 09:53:00,
2013-04-18 06:53:00,75.0,-99.9,29.98,SE,130,25.0,30.0,-999,-99.99,,,-99.99,,2013-04-18 10:53:00,
2013-04-18 07:52:00,79.0,-99.9,30.00,ESE,120,15.0,17.0,-999,-99.99,,,-99.99,,2013-04-18 11:52:00,
2013-04-18 08:53:00,79.0,-99.9,30.02,ESE,110,11.0,13.0,-999,-99.99,,,-99.99,,2013-04-18 12:53:00,
2013-04-18 09:53:00,80.0,-99.9,30.03,ESE,110,13.0,15.0,-999,-99.99,,,-99.99,,2013-04-18 13:53:00,
2013-04-18 10:53:00,81.0,-99.9,30.04,SE,130,17.0,21.0,-999,-99.99,,,-99.99,,2013-04-18 14:53:00,
2013-04-18 11:53:00,81.0,-99.9,30.04,SE,130,16.0,20.0,-999,-99.99,,,-99.99,,2013-04-18 15:53:00,
2013-04-18 12:53:00,81.0,-99.9,30.03,SE,140,18.0,20.0,-999,-99.99,,,-99.99,,2013-04-18 16:53:00,
2013-04-18 13:52:00,81.0,-99.9,30.02,SE,140,17.0,21.0,-999,-99.99,,,-99.99,,2013-04-18 17:52:00,
2013-04-18 14:53:00,81.0,-99.9,30.01,SE,130,17.0,20.0,-999,-99.99,,,-99.99,,2013-04-18 18:53:00,
2013-04-18 15:53:00,81.0,-99.9,30.00,SE,130,17.0,20.0,-999,-99.99,,,-99.99,,2013-04-18 19:53:00,
2013-04-18 16:52:00,82.0,-99.9,29.98,SE,140,18.0,22.0,-999,-99.99,,,-99.99,,2013-04-18 20:52:00,
2013-04-18 17:53:00,82.0,-99.9,29.98,SE,140,18.0,21.0,-999,-99.99,,,-99.99,,2013-04-18 21:53:00,
2013-04-18 18:53:00,82.0,-99.9,29.98,SE,130,17.0,20.0,-999,-99.99,,,-99.99,,2013-04-18 22:53:00,
2013-04-18 19:52:00,81.0,-99.9,29.97,SSE,150,18.0,22.0,-999,-99.99,,,-99.99,,2013-04-18 23:52:00,
2013-04-18 20:52:00,82.0,-99.9,29.97,SE,140,20.0,23.0,-999,-99.99,,,-99.99,,2013-04-19 00:52:00,
2013-04-18 21:52:00,81.0,-99.9,29.99,SE,140,18.0,23.0,-999,-99.99,,,-99.99,,2013-04-19 01:52:00,
2013-04-18 22:52:00,82.0,-99.9,30.01,SE,130,18.0,22.0,-999,-99.99,,,-99.99,,2013-04-19 02:52:00,
2013-04-18 22:54:00,81.0,-99.9,30.01,SE,130,20.0,26.0,-999,-99.99,,,-99.99,,2013-04-19 02:54:00,